This is the latest recevied weather packets stored in our database for station/object K6CQU-13. If no packets are shown the sender has not sent any weather packets the latest 10 day(s).
| Time | Temp. | Humidity | Pressure | Rain* | Wind** | Luminosity | Snow |
|---|---|---|---|---|---|---|---|
| 1778169316 | 18.33° C | 73% | 1018.7 hPa | 0 mm | - | 461 W/m² | - |
| 1778169016 | 18.33° C | 74% | 1018.7 hPa | 0 mm | - | 444 W/m² | - |
| 1778168717 | 17.78° C | 75% | 1018.8 hPa | 0 mm | - | 427 W/m² | - |
| 1778168416 | 17.78° C | 78% | 1018.8 hPa | 0 mm | - | 411 W/m² | - |
| 1778168116 | 17.22° C | 79% | 1018.8 hPa | 0 mm | - | 395 W/m² | - |
| 1778167816 | 16.67° C | 81% | 1018.8 hPa | 0 mm | - | 381 W/m² | - |
| 1778167517 | 16.11° C | 82% | 1018.8 hPa | 0 mm | - | 366 W/m² | - |
| 1778167216 | 16.11° C | 83% | 1018.9 hPa | 0 mm | - | 349 W/m² | - |
| 1778166916 | 15.56° C | 87% | 1019 hPa | 0 mm | - | 332 W/m² | - |
| 1778166616 | 15° C | 88% | 1018.9 hPa | 0 mm | - | 315 W/m² | - |
| 1778166316 | 14.44° C | 88% | 1018.9 hPa | 0 mm | - | 299 W/m² | - |
| 1778166016 | 14.44° C | 89% | 1018.9 hPa | 0 mm | - | 282 W/m² | - |
| 1778165716 | 14.44° C | 90% | 1018.9 hPa | 0 mm | - | 267 W/m² | - |
| 1778165416 | 14.44° C | 91% | 1018.9 hPa | 0 mm | - | 252 W/m² | - |
| 1778165116 | 13.89° C | 92% | 1018.9 hPa | 0 mm | - | 236 W/m² | - |
| 1778164816 | 13.89° C | 92% | 1018.8 hPa | 0 mm | - | 219 W/m² | - |
| 1778164518 | 13.33° C | 92% | 1018.8 hPa | 0 mm | - | 203 W/m² | - |
| 1778164218 | 13.33° C | 92% | 1018.8 hPa | 0 mm | - | 188 W/m² | - |
| 1778163918 | 13.33° C | 92% | 1018.7 hPa | 0 mm | - | 173 W/m² | - |
| 1778163618 | 12.78° C | 93% | 1018.7 hPa | 0 mm | - | 159 W/m² | - |
| 1778163318 | 12.78° C | 93% | 1018.7 hPa | 0 mm | - | 147 W/m² | - |
| 1778163018 | 12.78° C | 93% | 1018.6 hPa | 0 mm | - | 133 W/m² | - |
| 1778162718 | 12.78° C | 93% | 1018.6 hPa | 0 mm | - | 118 W/m² | - |
| 1778162418 | 12.78° C | 93% | 1018.6 hPa | 0 mm | - | 104 W/m² | - |
| 1778162118 | 12.22° C | 93% | 1018.5 hPa | 0 mm | - | 92 W/m² | - |
* Rain latest hour (hover to see other rain measurements)
** Current wind speed in m/s (hover to see current wind gust speed)